Weather Roundup
Issued by NWS

Home | Current Version | Previous Version | Text Only | Print | Product List | Glossary On
Versions: 1 2 3 4 5 6 7 8 9 10 11 12 13 14 15 16 17 18 19 20 21 22 23 24 25 26 27 28 29 30 31 32 33 34 35 36 37 38 39 40 41 42 43 44 45 46 47 48 49 50
000
NZUS93 KARX 172110
HRRWXR

CURRENT HOURLY OBSERVATIONS ACROSS
MUCH OF THE UPPER MISSISSIPPI VALLEY
NATIONAL WEATHER SERVICE LA CROSSE WI
300 PM CST TUE JAN 17 2017


...SOUTHEAST MINNESOTA...


CITY           SKY/WX    TMP DP  RH WIND       PRES   REMARKS
ROCHESTER      FOG       32  32 100 NW16      29.94R VSB 1/2 WCI  21
ROCHESTER/MAYO CLOUDY    32  32 100 NW10G17   29.94R VSB 3/4 WCI  24
WINONA         CLOUDY    34  34 100 NW8       29.94R FOG     WCI  27
AUSTIN         CLOUDY    32  30  93 NW12      29.96R FOG     WCI  23
ALBERT LEA     FOG       30  30 100 NW5       29.97S VSB 1/2 WCI  25
DODGE CENTER   FOG       32  30  93 CALM      29.95R VSB 3/4
PRESTON        FOG       32  31  98 NW12      29.92R VSB 3/4 WCI  23
OWATONNA       FOG       34  30  86 W8        29.98R VSB 3/4 WCI  27
FARIBAULT        N/A     34  32  93 W7        29.98S FOG     WCI  28
$$

...ELSEWHERE IN MINNESOTA...


CITY           SKY/WX    TMP DP  RH WIND       PRES   REMARKS
MINNEAPOLIS    CLOUDY    35  30  82 NW5       29.98R WCI  31
INTNL FALLS    CLOUDY    31  16  54 CALM      29.81F
DULUTH         SUNNY     37  26  64 W3        29.89S
RED WING       CLOUDY    36  30  80 NW8       29.96R WCI  29
REDWOOD FALLS  SUNNY     27  21  78 SW6       29.99R WCI  20
MANKATO        FOG       31  29  92 NW3       29.99S VSB 1
WORTHINGTON    SUNNY     30  26  85 W15       29.99S WCI  19
FAIRMONT       CLOUDY    32  30  93 W7        30.00S FOG     WCI  26
$$

...SOUTHWEST WISCONSIN...


CITY           SKY/WX    TMP DP  RH WIND       PRES   REMARKS
LA CROSSE      LGT SNOW  35  33  92 NW8       29.91R FOG     WCI  29
PRAIRIE DU CHI CLOUDY    34  33  96 W7        29.92R WCI  28
BOSCOBEL       CLOUDY    36  33  89 SW5       29.91R WCI  32
LONE ROCK      CLOUDY    35  33  92 W7        29.91R FOG     WCI  29
PLATTEVILLE    CLOUDY    34  34 100 W9        29.90R WCI  27
FORT MC COY    RAIN      33  33 100 W3        29.91R
CAMP DOUGLAS   CLOUDY    35  34  97 NW8       29.88R FOG     WCI  28
MAUSTON-NEW LI FOG       34  33  99 NW6       29.88R VSB 1   WCI  29
VIROQUA        CLOUDY    33  33 100 NW5       29.87R WCI  28
WIS DELLS      CLOUDY    33  33  99 W6        29.88R WCI  28
$$

...ELSEWHERE IN WISCONSIN...


CITY           SKY/WX    TMP DP  RH WIND       PRES   REMARKS
MILWAUKEE      CLOUDY    38  34  85 W7        29.85R WCI  33
MADISON        CLOUDY    34  33  96 W6        29.88R FOG     WCI  29
GREEN BAY      FOG       36  35  96 NW6       29.86R VSB 3/4 WCI  31
EAU CLAIRE     CLOUDY    37  34  89 NW3       29.92R
BLACK RVR FLS  CLOUDY    36  36 100 CALM      29.89S FOG
MEDFORD        CLOUDY    38  34  85 CALM      29.86R
WAUSAU         CLOUDY    35  33  92 NW3       29.86R
WIS RAPIDS     CLOUDY    35  35 100 N6        29.88R FOG     WCI  30
MARSHFIELD     CLOUDY    36  33  89 N5        29.86S FOG     WCI  32
RICE LAKE      MOSUNNY   38  31  73 W5        29.93R WCI  35
$$

...NORTHEAST IOWA...


CITY           SKY/WX    TMP DP  RH WIND       PRES   REMARKS
WATERLOO       CLOUDY    33  31  92 W12G20    29.97R FOG     WCI  24
DUBUQUE        CLOUDY    33  32  96 W14       29.91R FOG     WCI  23
DECORAH        CLOUDY    34  34 100 NW8       29.91R WCI  27
MASON CITY     CLOUDY    32  30  92 NW14      29.99R FOG     WCI  22
CHARLES CITY   FOG       34  34 100 NW13      29.96R VSB 1   WCI  25
OELWEIN        FOG       32  32 100 W15       29.94S VSB 1   WCI  22
$$

...ELSEWHERE IN IOWA...


CITY           SKY/WX    TMP DP  RH WIND       PRES   REMARKS
DES MOINES     CLOUDY    36  33  89 W13       30.03R WCI  27
IOWA CITY      CLOUDY    36  33  89 W13       30.00R FOG     WCI  27
FORT DODGE     CLOUDY    34  30  86 CALM      30.03R
MARSHALLTOWN   CLOUDY    33  32  96 NW17      29.99R FOG     WCI  22
CEDAR RAPIDS   CLOUDY    34  32  92 W16       29.96R FOG     WCI  24
$$

...NORTHERN ILLINOIS...


CITY           SKY/WX    TMP DP  RH WIND       PRES   REMARKS
CHICAGO-OHARE  CLOUDY    38  36  92 W9        29.88R FOG     WCI  31
CHICAGO-MIDWAY CLOUDY    37  35  92 W10       29.90R WCI  30
MOLINE         CLOUDY    36  34  92 W10       29.96R FOG     WCI  28
ROCKFORD       CLOUDY    36  34  92 W9        29.92R FOG     WCI  29
PEORIA         CLOUDY    37  35  92 W13       29.98R FOG     WCI  29
$$

NOTE: "FAIR" INDICATES FEW OR NO CLOUDS BELOW 12,000 FEET WITH NO
SIGNIFICANT WEATHER AND/OR OBSTRUCTIONS TO VISIBILITY. WIND
SPEEDS ARE IN MILES-PER-HOUR.




USA.gov is the U.S. government's official web portal to all federal, state and local government web resources and services.